Salem, IL

7:55 PM CDT on June 27, 2017 (GMT -0500)
Salem-Leckrone

Weather History for KSLO - May, 2013

Change the Weather History Date:

Monday, May 6, 2013

  Actual Average Record
Temperature  
Mean Temperature 60 °F -  
Max Temperature 66 °F 74 °F 89 °F (1959)
Min Temperature 54 °F 51 °F 35 °F (1978)
Degree Days  
Heating Degree Days 6    
Growing Degree Days 10 (Base 50)    
Moisture  
Dew Point 56 °F    
Average Humidity 87    
Maximum Humidity 100    
Minimum Humidity 76    
Precipitation  
Precipitation 0.00 in - - ()
Sea Level Pressure  
Sea Level Pressure 29.93 in    
Wind  
Wind Speed 8 mph (NNE)    
Max Wind Speed 14 mph    
Max Gust Speed 17 mph    
Visibility 10 miles    
Events Rain    
Averages and records for this station are not official NWS values.
T = Trace of Precipitation, MM = Missing Value Source: NWS Daily Summary

Daily Weather History Graph

Daily Weather History Graph

Search for Another Location

Airport or City:

Trip Planner

Search our weather history database for the weather conditions in past years. The results will help you decide how hot, cold, wet, or windy it might be!

Date:

Astronomy

May. 06, 2013 Rise Set
Actual Time 5:52 AM CDT 7:52 PM CDT
Civil Twilight 5:23 AM CDT 8:22 PM CDT
Nautical Twilight 4:48 AM CDT 8:57 PM CDT
Astronomical Twilight 4:09 AM CDT 9:36 PM CDT
Moon 3:52 AM CDT (5/6) 4:54 PM CDT (5/6)
Length of Visible Light 14h 58m
Length of Day
14h 00m
Waning Crescent, 11% of the Moon is Illuminated
May 6
Waning Crescent
May 9
New
May 17
First Quarter
May 24
Full
May 31
Last Quarter

Hourly Weather History & Observations

Time (CDT) Temp. Dew Point Humidity Pressure Visibility Wind Dir Wind Speed Gust Speed Precip Events Conditions
12:15 AM 55.2 °F 52.5 °F 91% 29.92 in 10.0 mi NE 5.8 mph - N/A   Overcast
12:35 AM 55.4 °F 52.3 °F 89% 29.92 in 10.0 mi NE 5.8 mph - N/A   Overcast
12:55 AM 55.0 °F 52.7 °F 92% 29.91 in 10.0 mi NNE 9.2 mph - N/A   Overcast
1:15 AM 54.9 °F 52.7 °F 92% 29.90 in 10.0 mi NNE 8.1 mph - N/A   Overcast
1:35 AM 54.7 °F 52.7 °F 93% 29.90 in 10.0 mi NNE 9.2 mph - N/A   Overcast
1:55 AM 54.5 °F 52.9 °F 94% 29.88 in 10.0 mi NNE 8.1 mph - N/A   Overcast
2:15 AM 54.7 °F 53.1 °F 94% 29.88 in 10.0 mi NE 6.9 mph - N/A   Overcast
2:35 AM 54.9 °F 53.2 °F 94% 29.88 in 10.0 mi NNE 6.9 mph - N/A   Overcast
2:55 AM 54.7 °F 53.2 °F 95% 29.89 in 10.0 mi NNE 9.2 mph - N/A   Overcast
3:15 AM 55.0 °F 53.2 °F 94% 29.89 in 10.0 mi NE 8.1 mph - N/A   Overcast
3:35 AM 55.0 °F 53.6 °F 95% 29.89 in 10.0 mi NNE 6.9 mph - N/A   Overcast
3:55 AM 55.4 °F 53.6 °F 94% 29.89 in 10.0 mi NE 8.1 mph - N/A   Overcast
4:15 AM 55.4 °F 54.0 °F 95% 29.90 in 10.0 mi NE 10.4 mph - N/A Rain Rain
4:35 AM 55.0 °F 54.0 °F 96% 29.90 in 7.0 mi NNE 9.2 mph - N/A Rain Rain
4:55 AM 54.7 °F 54.5 °F 99% 29.90 in 5.0 mi NNE 11.5 mph - N/A Rain Heavy Rain
5:15 AM 54.9 °F 54.7 °F 99% 29.90 in 5.0 mi NNE 12.7 mph - N/A Rain Light Rain
5:35 AM 54.9 °F 54.9 °F 100% 29.91 in 7.0 mi North 6.9 mph - N/A   Light Drizzle
5:55 AM 54.9 °F 54.7 °F 99% 29.91 in 10.0 mi North 9.2 mph - N/A   Light Drizzle
6:15 AM 55.4 °F 54.5 °F 97% 29.92 in 7.0 mi NNE 9.2 mph - N/A   Drizzle
6:35 AM 55.2 °F 54.5 °F 97% 29.93 in 4.0 mi NNE 9.2 mph - N/A   Heavy Drizzle
6:55 AM 54.9 °F 54.9 °F 100% 29.93 in 4.0 mi NNE 8.1 mph - N/A   Drizzle
7:15 AM 55.4 °F 55.2 °F 99% 29.93 in 10.0 mi NNE 5.8 mph - N/A   Light Drizzle
7:35 AM 55.6 °F 55.2 °F 99% 29.94 in 10.0 mi NNE 4.6 mph - N/A   Overcast
7:55 AM 55.8 °F 55.0 °F 97% 29.94 in 10.0 mi North 6.9 mph - N/A   Overcast
8:15 AM 55.9 °F 54.9 °F 96% 29.94 in 10.0 mi North 8.1 mph - N/A   Overcast
8:35 AM 56.3 °F 54.7 °F 94% 29.94 in 10.0 mi NNE 6.9 mph - N/A   Overcast
8:55 AM 56.7 °F 54.9 °F 94% 29.94 in 5.0 mi North 10.4 mph - N/A   Overcast
9:15 AM 57.2 °F 54.9 °F 92% 29.94 in 10.0 mi North 12.7 mph - N/A   Overcast
9:35 AM 58.1 °F 54.7 °F 88% 29.95 in 10.0 mi North 9.2 mph 17.3 mph N/A   Overcast
9:55 AM 58.6 °F 55.2 °F 88% 29.95 in 10.0 mi NNE 8.1 mph - N/A   Overcast
10:15 AM 59.0 °F 55.4 °F 88% 29.95 in 10.0 mi NNE 10.4 mph - N/A   Overcast
10:35 AM 59.2 °F 55.4 °F 87% 29.96 in 10.0 mi NNE 9.2 mph - N/A   Overcast
10:55 AM 59.9 °F 56.1 °F 87% 29.96 in 10.0 mi NE 8.1 mph - N/A   Overcast
11:15 AM 60.8 °F 56.7 °F 86% 29.96 in 10.0 mi NNE 8.1 mph - N/A   Overcast
11:35 AM 61.7 °F 57.0 °F 85% 29.95 in 10.0 mi NNE 9.2 mph - N/A   Overcast
11:55 AM 61.7 °F 56.5 °F 83% 29.95 in 10.0 mi NNE 10.4 mph - N/A   Overcast
12:15 PM 62.8 °F 57.2 °F 82% 29.95 in 10.0 mi NNE 10.4 mph - N/A   Overcast
12:35 PM 62.8 °F 57.4 °F 82% 29.94 in 10.0 mi NNE 9.2 mph - N/A   Overcast
12:55 PM 63.5 °F 57.4 °F 80% 29.94 in 10.0 mi NE 9.2 mph - N/A   Overcast
1:15 PM 64.4 °F 57.7 °F 79% 29.94 in 10.0 mi North 11.5 mph - N/A   Overcast
1:35 PM 64.8 °F 58.1 °F 79% 29.94 in 10.0 mi North 11.5 mph 17.3 mph N/A   Overcast
1:55 PM 63.7 °F 56.7 °F 78% 29.94 in 10.0 mi NNE 8.1 mph - N/A   Overcast
2:15 PM 63.5 °F 56.1 °F 77% 29.95 in 10.0 mi NNE 8.1 mph - N/A   Overcast
2:35 PM 62.6 °F 57.2 °F 82% 29.94 in 10.0 mi NNE 6.9 mph - N/A   Overcast
2:55 PM 63.7 °F 56.7 °F 78% 29.95 in 10.0 mi NE 5.8 mph - N/A   Overcast
3:15 PM 63.7 °F 56.5 °F 77% 29.94 in 10.0 mi NNE 9.2 mph - N/A   Overcast
3:35 PM 63.5 °F 56.5 °F 78% 29.94 in 10.0 mi North 8.1 mph - N/A   Overcast
3:55 PM 64.0 °F 57.4 °F 79% 29.93 in 10.0 mi NNE 9.2 mph - N/A   Overcast
4:15 PM 64.4 °F 57.7 °F 79% 29.93 in 10.0 mi North 13.8 mph - N/A   Overcast
4:35 PM 64.4 °F 57.2 °F 77% 29.93 in 10.0 mi North 10.4 mph - N/A   Overcast
4:55 PM 64.8 °F 57.2 °F 76% 29.93 in 10.0 mi North 9.2 mph - N/A   Overcast
5:15 PM 65.3 °F 57.6 °F 76% 29.93 in 10.0 mi North 12.7 mph 16.1 mph N/A   Overcast
5:35 PM 65.5 °F 57.6 °F 76% 29.93 in 10.0 mi North 9.2 mph - N/A   Overcast
5:55 PM 65.8 °F 58.1 °F 76% 29.93 in 10.0 mi North 10.4 mph - N/A   Overcast
6:15 PM 65.8 °F 58.5 °F 77% 29.93 in 10.0 mi North 6.9 mph - N/A   Overcast
6:35 PM 65.5 °F 58.5 °F 78% 29.93 in 10.0 mi North 6.9 mph - N/A   Overcast
6:55 PM 65.3 °F 58.1 °F 77% 29.94 in 10.0 mi NNE 8.1 mph - N/A   Overcast
7:15 PM 64.8 °F 58.3 °F 79% 29.94 in 10.0 mi NNE 5.8 mph - N/A   Overcast
7:35 PM 64.0 °F 58.6 °F 83% 29.94 in 10.0 mi North 4.6 mph - N/A   Overcast
7:55 PM 63.0 °F 59.2 °F 87% 29.94 in 10.0 mi North 4.6 mph - N/A   Overcast
8:15 PM 63.1 °F 58.5 °F 85% 29.95 in 10.0 mi North 4.6 mph - N/A   Overcast
8:35 PM 63.0 °F 58.6 °F 86% 29.96 in 10.0 mi North 5.8 mph - N/A   Overcast
8:55 PM 62.6 °F 58.5 °F 86% 29.96 in 10.0 mi North 5.8 mph - N/A   Overcast
9:15 PM 62.1 °F 58.6 °F 89% 29.96 in 10.0 mi North 4.6 mph - N/A   Overcast
9:55 PM 63.5 °F 57.2 °F 80% 29.97 in 10.0 mi NNE 10.4 mph - N/A   Overcast
10:15 PM 63.5 °F 57.0 °F 79% 29.97 in 10.0 mi NNE 9.2 mph - N/A   Overcast
10:35 PM 63.3 °F 57.0 °F 80% 29.97 in 10.0 mi North 9.2 mph - N/A   Overcast
10:55 PM 62.6 °F 57.4 °F 83% 29.97 in 10.0 mi North 5.8 mph - N/A   Overcast
11:15 PM 61.9 °F 57.2 °F 85% 29.97 in 10.0 mi North 6.9 mph - N/A   Mostly Cloudy
11:35 PM 60.8 °F 57.2 °F 88% 29.97 in 10.0 mi NNE 4.6 mph - N/A   Mostly Cloudy
11:55 PM 60.4 °F 57.2 °F 89% 29.97 in 10.0 mi Calm Calm - N/A   Mostly Cloudy